TimeEDT,TemperatureF,Dew PointF,Humidity,Sea Level PressureIn,VisibilityMPH,Wind Direction,Wind SpeedMPH,Gust SpeedMPH,PrecipitationIn,Events,Conditions,WindDirDegrees,DateUTC
12:52 AM,36.0,32.0,86,29.65,10.0,ENE,8.1,-,0.00,,Overcast,70,2013-03-25 04:52:00
12:59 AM,35.6,32.0,87,29.64,10.0,East,5.8,-,N/A,,Overcast,90,2013-03-25 04:59:00
1:52 AM,36.0,30.9,82,29.62,10.0,East,8.1,-,N/A,,Overcast,100,2013-03-25 05:52:00
2:52 AM,35.1,32.0,89,29.59,4.0,East,4.6,-,0.00,Rain-Snow,Light Rain,80,2013-03-25 06:52:00
3:28 AM,35.6,32.0,87,29.58,2.5,ENE,6.9,-,0.01,Snow,Light Snow,60,2013-03-25 07:28:00
3:35 AM,35.6,32.0,87,29.58,2.5,NE,5.8,-,N/A,Snow,Light Snow,40,2013-03-25 07:35:00
3:38 AM,35.6,32.0,87,29.58,3.0,NNE,5.8,-,0.02,Snow,Light Snow,30,2013-03-25 07:38:00
3:47 AM,33.8,30.2,87,29.59,2.0,NNW,6.9,-,0.03,Snow,Light Snow,340,2013-03-25 07:47:00
3:52 AM,34.0,30.9,89,29.60,2.0,NW,8.1,-,0.03,Snow,Light Snow,320,2013-03-25 07:52:00
3:55 AM,33.8,30.2,87,29.60,1.8,NW,9.2,-,0.01,Snow,Light Snow,320,2013-03-25 07:55:00
4:31 AM,33.8,30.2,87,29.61,1.5,NNW,8.1,-,0.09,Snow,Light Snow,330,2013-03-25 08:31:00
4:52 AM,33.1,30.9,92,29.60,1.5,North,6.9,-,0.12,Snow,Light Snow,350,2013-03-25 08:52:00
5:34 AM,33.8,30.2,87,29.58,1.0,North,5.8,-,0.06,Snow,Light Snow,350,2013-03-25 09:34:00
5:41 AM,33.8,30.2,87,29.58,0.5,North,5.8,-,N/A,Fog-Snow,Snow,350,2013-03-25 09:41:00
5:52 AM,33.1,30.9,92,29.57,0.8,North,5.8,-,0.10,Snow,Light Snow,350,2013-03-25 09:52:00
5:55 AM,33.8,30.2,87,29.58,1.2,North,5.8,-,0.00,Snow,Light Snow,350,2013-03-25 09:55:00
6:28 AM,33.8,30.2,87,29.57,2.0,North,6.9,-,0.03,Snow,Light Snow,360,2013-03-25 10:28:00
6:52 AM,34.0,32.0,92,29.56,2.5,NNE,9.2,-,0.04,Snow,Light Snow,20,2013-03-25 10:52:00
7:02 AM,33.8,32.0,93,29.56,1.8,NNE,8.1,-,0.00,Snow,Light Snow,30,2013-03-25 11:02:00
7:33 AM,33.8,32.0,93,29.56,2.5,NNE,8.1,-,0.02,Snow,Light Snow,20,2013-03-25 11:33:00
7:45 AM,35.6,32.0,87,29.56,3.0,NNE,9.2,-,0.02,Snow,Light Snow,20,2013-03-25 11:45:00
7:52 AM,34.0,30.9,89,29.56,3.0,NNE,11.5,-,0.02,Snow,Light Snow,30,2013-03-25 11:52:00
8:08 AM,35.6,30.2,81,29.56,2.5,NNE,9.2,-,0.01,Snow,Light Snow,30,2013-03-25 12:08:00
8:20 AM,33.8,30.2,87,29.56,1.8,NNE,9.2,-,0.01,Snow,Light Snow,20,2013-03-25 12:20:00
8:39 AM,33.8,32.0,93,29.55,1.2,NNE,9.2,-,0.02,Snow,Light Snow,30,2013-03-25 12:39:00
8:52 AM,34.0,32.0,92,29.55,1.5,NNE,9.2,-,0.02,Snow,Light Snow,30,2013-03-25 12:52:00
8:57 AM,35.6,32.0,87,29.55,2.0,NNE,9.2,-,0.01,Snow,Light Snow,20,2013-03-25 12:57:00
9:18 AM,35.6,32.0,87,29.54,3.0,NNE,8.1,-,0.01,Snow,Light Snow,30,2013-03-25 13:18:00
9:33 AM,35.6,32.0,87,29.54,5.0,NE,9.2,-,0.01,Snow,Light Snow,40,2013-03-25 13:33:00
9:52 AM,35.1,32.0,89,29.53,6.0,NNE,11.5,-,0.02,Snow,Light Snow,30,2013-03-25 13:52:00
10:40 AM,35.6,32.0,87,29.54,6.0,NNE,8.1,-,0.00,Snow,Light Snow,20,2013-03-25 14:40:00
10:52 AM,36.0,32.0,86,29.54,4.0,North,8.1,-,0.00,Rain-Snow,Light Snow,10,2013-03-25 14:52:00
11:17 AM,35.6,32.0,87,29.54,5.0,North,6.9,-,0.00,Rain-Snow,Light Snow,360,2013-03-25 15:17:00
11:52 AM,36.0,32.0,86,29.55,2.5,NNW,5.8,-,0.03,Snow,Light Snow,330,2013-03-25 15:52:00
12:21 PM,35.6,32.0,87,29.55,3.0,NW,9.2,-,0.02,Rain-Snow,Light Snow,320,2013-03-25 16:21:00
12:52 PM,37.0,33.1,86,29.55,5.0,NNW,8.1,-,0.03,Rain-Snow,Light Snow,330,2013-03-25 16:52:00
1:13 PM,37.4,33.8,87,29.54,6.0,NW,6.9,-,0.01,Rain,Light Rain,320,2013-03-25 17:13:00
1:52 PM,37.9,34.0,86,29.54,9.0,NNW,8.1,-,0.02,Rain,Light Rain,330,2013-03-25 17:52:00
2:01 PM,37.4,33.8,87,29.54,8.0,NW,9.2,-,0.00,Rain,Light Rain,320,2013-03-25 18:01:00
2:52 PM,39.0,34.0,82,29.54,10.0,NW,9.2,-,0.02,Rain,Light Rain,320,2013-03-25 18:52:00
3:00 PM,39.2,33.8,81,29.54,10.0,NW,9.2,-,0.00,Rain,Light Rain,320,2013-03-25 19:00:00
3:04 PM,39.2,33.8,81,29.54,9.0,NW,10.4,-,0.00,Rain,Light Rain,320,2013-03-25 19:04:00
3:09 PM,39.2,33.8,81,29.54,9.0,NW,9.2,-,0.00,Rain,Light Rain,310,2013-03-25 19:09:00
3:11 PM,39.2,33.8,81,29.54,9.0,NW,11.5,-,0.00,Rain,Light Rain,310,2013-03-25 19:11:00
3:52 PM,39.0,34.0,82,29.54,10.0,NNW,11.5,-,0.00,Rain,Light Rain,330,2013-03-25 19:52:00
4:06 PM,39.2,33.8,81,29.55,10.0,NW,9.2,-,0.01,Rain,Light Rain,320,2013-03-25 20:06:00
4:09 PM,39.2,33.8,81,29.55,10.0,NW,10.4,-,0.01,Rain,Light Rain,310,2013-03-25 20:09:00
4:25 PM,39.2,33.8,81,29.55,10.0,NW,10.4,-,0.01,Rain,Light Rain,320,2013-03-25 20:25:00
4:52 PM,39.0,34.0,82,29.56,10.0,NNW,10.4,-,0.01,,Overcast,330,2013-03-25 20:52:00
4:55 PM,39.2,33.8,81,29.56,10.0,NW,9.2,-,N/A,,Overcast,320,2013-03-25 20:55:00
5:08 PM,39.2,33.8,81,29.57,10.0,NW,11.5,-,0.00,Rain,Light Rain,310,2013-03-25 21:08:00
5:52 PM,39.0,33.1,79,29.59,9.0,NW,6.9,-,0.02,Rain,Light Rain,320,2013-03-25 21:52:00
6:52 PM,37.9,34.0,86,29.62,7.0,NW,5.8,-,0.02,Rain,Light Rain,320,2013-03-25 22:52:00
7:37 PM,37.4,33.8,87,29.64,10.0,NNW,6.9,-,0.01,Rain,Light Rain,340,2013-03-25 23:37:00
7:52 PM,37.9,34.0,86,29.65,9.0,NNW,6.9,-,0.01,Rain,Light Rain,330,2013-03-25 23:52:00
8:00 PM,37.4,33.8,87,29.65,8.0,NNW,6.9,-,0.00,Rain,Light Rain,330,2013-03-26 00:00:00
8:03 PM,37.4,33.8,87,29.66,8.0,NNW,8.1,-,0.00,Rain,Light Rain,340,2013-03-26 00:03:00
8:08 PM,37.4,33.8,87,29.66,8.0,NNW,5.8,-,0.00,Rain,Light Rain,340,2013-03-26 00:08:00
8:12 PM,37.4,33.8,87,29.66,8.0,NNW,6.9,-,0.01,Rain,Light Rain,330,2013-03-26 00:12:00
8:19 PM,37.4,33.8,87,29.66,8.0,NW,5.8,-,0.01,Rain,Light Rain,320,2013-03-26 00:19:00
8:30 PM,37.4,33.8,87,29.67,8.0,NW,6.9,-,0.01,Rain,Light Rain,320,2013-03-26 00:30:00
8:52 PM,37.9,33.1,83,29.68,9.0,NW,6.9,-,0.01,,Overcast,310,2013-03-26 00:52:00
9:28 PM,37.4,33.8,87,29.69,9.0,NW,6.9,-,0.00,Rain,Light Rain,310,2013-03-26 01:28:00
9:32 PM,37.4,33.8,87,29.69,9.0,NW,6.9,-,0.00,,Overcast,310,2013-03-26 01:32:00
9:48 PM,37.4,33.8,87,29.70,10.0,NW,6.9,-,0.00,,Overcast,320,2013-03-26 01:48:00
9:52 PM,37.9,33.1,83,29.70,10.0,NW,8.1,-,0.00,,Overcast,310,2013-03-26 01:52:00
10:18 PM,37.4,33.8,87,29.70,10.0,NW,6.9,-,N/A,,Overcast,310,2013-03-26 02:18:00
10:52 PM,37.0,32.0,82,29.70,10.0,NW,6.9,-,N/A,,Mostly Cloudy,320,2013-03-26 02:52:00
11:52 PM,37.0,33.1,86,29.72,10.0,WNW,6.9,-,N/A,,Mostly Cloudy,290,2013-03-26 03:52:00